TITAN 3C TRANSTAGE DEB, 38698

Orbit data source: Space-Track

TITAN 3C TRANSTAGE DEB, 38698 is space debris in GEO originally from a launch on Thu, 26 Sep 1968 UTC launched from the Air Force Eastern Test Range (AFETR). Debris objects in space refer to the collection of defunct objects orbiting the Earth. Examples of debris include non-operational satellites, rocket bodies, and fragments generated from explosions, collisions, or faulty payload assembly.

Not visible in the next 10 days
Identifier
38698, 1968-081Y
Orbit
GEO
Country
Flag of USUS
Related business
Manufacturer
Unknown
Mission
Spacecraft
Bus & Motor
Unknown
Mass
Unknown
Launch date (UTC)
1968-09-26 (57 years ago)
Launch vehicle
Unknown
Launch site
Air Force Eastern Test Range (AFETR)
Object type
Payload
Rocket body
Debris
Shape & HBR
Unknown shape, 1.1 m
Radar Cross Section
Large (>1 m²)

Expand to show TLE details & history
Last TLE update: 9 hours ago

TLE from 9 hours ago
0 TITAN 3C TRANSTAGE DEB
1 38698U 68081Y   25291.89253857 -.00000243  00000-0  00000-0 0  9993
2 38698   2.9423  72.5801 0218841 175.8241 184.6190  1.04404643 83254
Epoch: 2025-10-18T21:25Z
TLE epoch observation values (Epoch: 2025-10-18T21:25:15.332Z)
Latitude
-0°
Longitude
83.86245°
Altitude
35,560.615 km
Speed
3.049 km/s
True Right ascension
04h 51m 10s
True Declination
0° 00' 00"
Sunlit
Object was in daylight at epoch
Visualization orbit readout
Latitude
Unknown
Longitude
Unknown
Altitude
Unknown
Speed
Unknown
Apparent Right ascension
Unknown
Apparent Declination
Unknown
Sunlit
N/A
Visualization observer readout
Local Sidereal Time
00:52:57
Azimuth
Unknown
Elevation
Unknown
Doppler factor
Unknown
Orbital elements
Apogee altitude
35,565.736 km
Perigee altitude
33,769.242 km
Semi-major axis
41,045.626 km
Eccentricity
0.02188
Inclination
2.9423°
RAAN
72.5801°
Arg. of periapsis
175.8241°
True anomaly
184.42242°
Mean anomaly
184.619°
Eccentric anomaly
184.52018°
Mean motion
0.261 °/min
Orbital period
1,379.3 mins
BSTAR
0
Loading maneuver chart data...
Computing Atmospheric mass density...

Documentation

Showing up to 5 results
|